Meeker, CO

2:41 PM MDT on April 22, 2018 (GMT -0600)
Meeker

Weather History for KEEO - June, 2013

Change the Weather History Date:

Saturday, June 8, 2013

  Actual Average Record
Temperature  
Mean Temperature 65 °F 59 °F  
Max Temperature 83 °F 76 °F 88 °F (2001)
Min Temperature 46 °F 42 °F 28 °F (2007)
Degree Days  
Heating Degree Days 0 7  
Month to date heating degree days 49 60  
Since 1 June heating degree days 49 60  
Since 1 July heating degree days 8182 7893  
Cooling Degree Days 0 0  
Month to date cooling degree days 0 0  
Year to date cooling degree days 0 1  
Since 1 June cooling degree days 0 0  
Growing Degree Days 15 (Base 50)    
Moisture  
Dew Point 35 °F    
Average Humidity 40    
Maximum Humidity 66    
Minimum Humidity 13    
Precipitation  
Precipitation 0.00 in 0.04 in 0.44 in (2014)
Month to date precipitation T 0.37  
Year to date precipitation 6.37 6.52  
Sea Level Pressure  
Sea Level Pressure 29.79 in    
Wind  
Wind Speed 6 mph (North)    
Max Wind Speed 20 mph    
Max Gust Speed 26 mph    
Visibility 10 miles    
Events      
T = Trace of Precipitation, MM = Missing Value Source: NWS Daily Summary

Daily Weather History Graph

Daily Weather History Graph

Search for Another Location

Airport or City:

Astronomy

Jun. 08, 2013 Rise Set
Actual Time 5:42 AM MDT 8:39 PM MDT
Civil Twilight 5:09 AM MDT 9:11 PM MDT
Nautical Twilight 4:28 AM MDT 9:53 PM MDT
Astronomical Twilight 3:40 AM MDT 10:41 PM MDT
Moon 5:52 AM MDT (6/8) 8:44 PM MDT (6/8)
Length of Visible Light 16h 01m
Length of Day
14h 56m
New Moon, 0% of the Moon is Illuminated
Jun 8
New Moon
Jun 16
First Quarter
Jun 23
Full
Jun 29
Last Quarter
Jul 8
New

Hourly Weather History & Observations

Time (MDT) Temp. Dew Point Humidity Pressure Visibility Wind Dir Wind Speed Gust Speed Precip Events Conditions
12:53 AM 52.0 °F 37.9 °F 59% 29.78 in 10.0 mi NNE 4.6 mph - N/A   Clear
1:53 AM 51.1 °F 37.9 °F 61% 29.77 in 10.0 mi Calm Calm - N/A   Clear
2:53 AM 50.0 °F 37.0 °F 61% 29.77 in 10.0 mi East 3.5 mph - N/A   Clear
3:53 AM 51.1 °F 37.9 °F 61% 29.76 in 10.0 mi Calm Calm - N/A   Clear
4:53 AM 52.0 °F 37.9 °F 59% 29.75 in 10.0 mi Variable 3.5 mph - N/A   Clear
5:53 AM 48.0 °F 37.9 °F 68% 29.79 in 10.0 mi ENE 5.8 mph - N/A   Clear
6:53 AM 52.0 °F 39.0 °F 61% 29.79 in 10.0 mi Calm Calm - N/A   Clear
7:53 AM 55.9 °F 39.9 °F 55% 29.80 in 10.0 mi Calm Calm - N/A   Clear
8:53 AM 62.1 °F 41.0 °F 46% 29.81 in 10.0 mi Variable 3.5 mph - N/A   Clear
9:53 AM 68.0 °F 43.0 °F 40% 29.80 in 10.0 mi Variable 3.5 mph - N/A   Clear
10:53 AM 72.0 °F 36.0 °F 27% 29.81 in 10.0 mi Variable 3.5 mph - N/A   Clear
11:53 AM 73.9 °F 35.1 °F 24% 29.83 in 10.0 mi NNW 11.5 mph 20.7 mph N/A   Clear
12:53 PM 75.9 °F 33.1 °F 21% 29.81 in 10.0 mi NW 13.8 mph 18.4 mph N/A   Clear
1:53 PM 78.1 °F 34.0 °F 20% 29.81 in 10.0 mi NNW 13.8 mph - N/A   Clear
2:53 PM 79.0 °F 35.1 °F 20% 29.80 in 10.0 mi NNW 10.4 mph 16.1 mph N/A   Clear
3:53 PM 80.1 °F 33.1 °F 18% 29.78 in 10.0 mi NNW 11.5 mph - N/A   Partly Cloudy
4:53 PM 79.0 °F 36.0 °F 21% 29.76 in 10.0 mi South 10.4 mph - N/A   Partly Cloudy
5:53 PM 82.0 °F 26.1 °F 13% 29.76 in 10.0 mi NNW 9.2 mph 21.9 mph N/A   Clear
6:53 PM 81.0 °F 25.0 °F 13% 29.75 in 10.0 mi North 13.8 mph 21.9 mph N/A   Clear
7:53 PM 78.1 °F 24.1 °F 14% 29.76 in 10.0 mi NNW 10.4 mph - N/A   Clear
8:53 PM 73.0 °F 26.1 °F 17% 29.77 in 10.0 mi NNW 6.9 mph - N/A   Clear
9:53 PM 64.0 °F 32.0 °F 30% 29.82 in 10.0 mi Calm Calm - N/A   Clear
10:53 PM 60.1 °F 33.1 °F 36% 29.85 in 10.0 mi Calm Calm - N/A   Clear
11:53 PM 59.0 °F 32.0 °F 36% 29.86 in 10.0 mi Calm Calm - N/A   Clear